SAS427 ENBO-ENAT

Flight info

Callsign SAS427
Flight time 0h 49m
Altitude 37000
Route PENNO DCT ABASU DCT MOKAX DCT BADIX
Aircraft A20N/M-SDE2E3FGHIRWXY/LB1

Departure

Time 2026-04-27 23:31
Airport Bodø Airport (ENBO)

Arrival

Time 2026-04-28 00:21
Airport Alta Airport (ENAT)
Time Latitude Longitude Altitude Speed Heading
2026-04-27 23:14 67.27141 14.36781 47 ft 0 kts 355°
2026-04-27 23:27 67.27135 14.36782 46 ft 1 kts 355°
2026-04-27 23:27 67.27127 14.36784 46 ft 1 kts 355°
2026-04-27 23:27 67.27120 14.36785 46 ft 1 kts 355°
2026-04-27 23:27 67.27112 14.36787 44 ft 1 kts 355°
2026-04-27 23:28 67.27104 14.36789 43 ft 1 kts
2026-04-27 23:28 67.27097 14.36787 44 ft 1 kts 20°
2026-04-27 23:28 67.27090 14.36780 43 ft 1 kts 36°
2026-04-27 23:28 67.27078 14.36741 45 ft 2 kts 78°
2026-04-27 23:29 67.27078 14.36748 45 ft 1 kts 78°
2026-04-27 23:29 67.27085 14.36895 47 ft 12 kts 83°
2026-04-27 23:29 67.27099 14.37140 51 ft 20 kts 80°
2026-04-27 23:30 67.27128 14.37539 49 ft 24 kts 78°
2026-04-27 23:30 67.27161 14.37975 50 ft 25 kts 81°
2026-04-27 23:30 67.27142 14.38317 51 ft 6 kts 125°
2026-04-27 23:30 67.27090 14.38373 53 ft 7 kts 212°
2026-04-27 23:31 67.27062 14.38215 52 ft 16 kts 256°
2026-04-27 23:31 67.26969 14.37122 44 ft 106 kts 258°
2026-04-27 23:31 67.26771 14.34640 115 ft 165 kts 261°
2026-04-27 23:31 67.26583 14.31704 957 ft 161 kts 278°
2026-04-27 23:32 67.27018 14.29150 1972 ft 156 kts 315°
2026-04-27 23:32 67.27963 14.27586 2648 ft 171 kts 334°
2026-04-27 23:32 67.29080 14.26149 3265 ft 188 kts 334°
2026-04-27 23:32 67.30310 14.24542 3801 ft 210 kts 333°
2026-04-27 23:33 67.31678 14.22713 4385 ft 231 kts 333°
2026-04-27 23:33 67.32957 14.20976 5151 ft 238 kts 332°
2026-04-27 23:33 67.34486 14.18884 6259 ft 241 kts 332°
2026-04-27 23:33 67.35970 14.16843 7263 ft 244 kts 332°
2026-04-27 23:34 67.37491 14.14783 8343 ft 245 kts 336°
2026-04-27 23:34 67.39154 14.13773 9196 ft 254 kts
2026-04-27 23:34 67.40852 14.14998 10272 ft 260 kts 27°
2026-04-27 23:34 67.42235 14.18195 11044 ft 278 kts 44°
2026-04-27 23:35 67.43442 14.22432 11427 ft 304 kts 51°
2026-04-27 23:35 67.44645 14.27185 11900 ft 321 kts 51°
2026-04-27 23:35 67.45830 14.31839 12733 ft 323 kts 50°
2026-04-27 23:35 67.47071 14.36557 13620 ft 326 kts 49°
2026-04-27 23:36 67.48422 14.41538 14500 ft 329 kts 48°
2026-04-27 23:36 67.49762 14.46400 15300 ft 330 kts 48°
2026-04-27 23:36 67.51112 14.51272 16106 ft 332 kts 47°
2026-04-27 23:36 67.52473 14.56180 16895 ft 335 kts 47°
2026-04-27 23:37 67.53844 14.61135 17711 ft 337 kts 47°
2026-04-27 23:37 67.55219 14.66121 18507 ft 339 kts 47°
2026-04-27 23:37 67.56604 14.71155 19188 ft 342 kts 46°
2026-04-27 23:37 67.57954 14.76069 19791 ft 345 kts 46°
2026-04-27 23:38 67.59310 14.81023 20415 ft 348 kts 46°
2026-04-27 23:38 67.60722 14.86190 21048 ft 352 kts 46°
2026-04-27 23:38 67.62152 14.91431 21673 ft 355 kts 46°
2026-04-27 23:38 67.63596 14.96735 22293 ft 358 kts 46°
2026-04-27 23:39 67.65047 15.02082 22902 ft 362 kts 46°
2026-04-27 23:39 67.66507 15.07485 23694 ft 362 kts 46°
2026-04-27 23:39 67.67859 15.12502 24279 ft 363 kts 46°
2026-04-27 23:39 67.69272 15.17749 24731 ft 367 kts 46°
2026-04-27 23:40 67.70749 15.23245 25236 ft 370 kts 46°
2026-04-27 23:40 67.72241 15.28811 25734 ft 372 kts 45°
2026-04-27 23:40 67.73677 15.34189 26208 ft 375 kts 45°
2026-04-27 23:40 67.75211 15.39947 26682 ft 378 kts 45°
2026-04-27 23:41 67.76693 15.45518 27124 ft 381 kts 45°
2026-04-27 23:41 67.78228 15.51306 27581 ft 383 kts 45°
2026-04-27 23:41 67.79764 15.57110 28005 ft 386 kts 45°
2026-04-27 23:41 67.81305 15.62942 28406 ft 387 kts 45°
2026-04-27 23:42 67.82846 15.68805 28685 ft 389 kts 45°
2026-04-27 23:42 67.84398 15.74721 29029 ft 393 kts 45°
2026-04-27 23:42 67.85939 15.80611 29417 ft 395 kts 45°
2026-04-27 23:42 67.87532 15.86715 29795 ft 398 kts 45°
2026-04-27 23:43 67.89089 15.92700 30128 ft 401 kts 45°
2026-04-27 23:43 67.90664 15.98772 30542 ft 403 kts 45°
2026-04-27 23:43 67.92270 16.04971 30819 ft 407 kts 45°
2026-04-27 23:43 67.93939 16.11041 31088 ft 404 kts 41°
2026-04-27 23:44 67.95826 16.16550 31347 ft 404 kts 38°
2026-04-27 23:44 67.97753 16.22029 31639 ft 406 kts 38°
2026-04-27 23:44 67.99685 16.27551 31981 ft 408 kts 39°
2026-04-27 23:44 68.01519 16.32811 32332 ft 410 kts 39°
2026-04-27 23:45 68.02823 16.36561 32560 ft 410 kts 40°
2026-04-27 23:46 68.04764 16.42156 32899 ft 411 kts 40°
2026-04-27 23:46 68.06721 16.47808 33140 ft 414 kts 40°
2026-04-27 23:46 68.08679 16.53489 33480 ft 416 kts 41°
2026-04-27 23:46 68.10641 16.59200 33775 ft 417 kts 41°
2026-04-27 23:47 68.12606 16.64937 34098 ft 418 kts 41°
2026-04-27 23:47 68.14575 16.70699 34392 ft 419 kts 42°
2026-04-27 23:47 68.16546 16.76483 34657 ft 420 kts 42°
2026-04-27 23:47 68.18519 16.82286 34895 ft 421 kts 42°
2026-04-27 23:48 68.20492 16.88109 35153 ft 421 kts 42°
2026-04-27 23:48 68.22465 16.93949 35350 ft 422 kts 42°
2026-04-27 23:48 68.26412 17.05678 35397 ft 421 kts 43°
2026-04-27 23:49 68.30344 17.17429 35396 ft 422 kts 43°
2026-04-27 23:49 68.34251 17.29163 35397 ft 422 kts 43°
2026-04-27 23:50 68.38077 17.40724 35391 ft 422 kts 43°
2026-04-27 23:50 68.41229 17.50295 35392 ft 423 kts 43°
2026-04-27 23:51 68.45145 17.62243 35396 ft 424 kts 43°
2026-04-27 23:51 68.49701 17.76224 35398 ft 425 kts 44°
2026-04-27 23:52 68.52950 17.86253 35397 ft 426 kts 44°
2026-04-27 23:52 68.56863 17.98407 35401 ft 426 kts 44°
2026-04-27 23:53 68.60467 18.11307 35390 ft 431 kts 49°
2026-04-27 23:53 68.63937 18.24096 35392 ft 431 kts 49°
2026-04-27 23:54 68.67514 18.37361 35386 ft 432 kts 49°
2026-04-27 23:54 68.71028 18.50545 35390 ft 432 kts 49°
2026-04-27 23:55 68.74569 18.63928 35386 ft 432 kts 49°
2026-04-27 23:55 68.78098 18.77352 35389 ft 432 kts 49°
2026-04-27 23:56 68.81619 18.90826 35402 ft 432 kts 50°
2026-04-27 23:56 68.85121 19.04314 35382 ft 432 kts 50°
2026-04-27 23:57 68.88617 19.17863 35376 ft 432 kts 50°
2026-04-27 23:57 68.92098 19.31437 35307 ft 430 kts 50°
2026-04-27 23:58 68.93829 19.38220 35080 ft 430 kts 50°
2026-04-27 23:58 68.95557 19.45008 34747 ft 431 kts 50°
2026-04-27 23:58 68.97293 19.51850 34094 ft 433 kts 50°
2026-04-27 23:58 68.99030 19.58722 33272 ft 434 kts 49°
2026-04-27 23:59 69.00767 19.65630 32423 ft 435 kts 49°
2026-04-27 23:59 69.02493 19.72518 31691 ft 432 kts 48°
2026-04-27 23:59 69.04200 19.79358 31167 ft 426 kts 48°
2026-04-27 23:59 69.05880 19.86111 30644 ft 420 kts 48°
2026-04-28 00:00 69.07547 19.92634 29998 ft 412 kts 44°
2026-04-28 00:00 69.09391 19.98493 29500 ft 400 kts 40°
2026-04-28 00:00 69.11239 20.04191 28991 ft 391 kts 40°
2026-04-28 00:00 69.13051 20.09790 28442 ft 384 kts 40°
2026-04-28 00:01 69.14829 20.15303 27928 ft 377 kts 40°
2026-04-28 00:01 69.16568 20.20716 27402 ft 369 kts 40°
2026-04-28 00:01 69.18274 20.26042 26879 ft 364 kts 40°
2026-04-28 00:01 69.19952 20.31278 26385 ft 358 kts 40°
2026-04-28 00:02 69.21607 20.36459 25882 ft 352 kts 40°
2026-04-28 00:02 69.23232 20.41564 25389 ft 348 kts 40°
2026-04-28 00:02 69.24831 20.46602 24897 ft 343 kts 40°
2026-04-28 00:02 69.26411 20.51595 24410 ft 339 kts 40°
2026-04-28 00:03 69.27931 20.56404 23936 ft 336 kts 40°
2026-04-28 00:03 69.29472 20.61299 23405 ft 331 kts 40°
2026-04-28 00:03 69.30987 20.66117 22968 ft 326 kts 41°
2026-04-28 00:03 69.32495 20.70906 22472 ft 332 kts 42°
2026-04-28 00:04 69.34079 20.75907 21970 ft 360 kts 43°
2026-04-28 00:04 69.37503 20.86855 20882 ft 375 kts 44°
2026-04-28 00:04 69.39212 20.92383 20337 ft 372 kts 44°
2026-04-28 00:05 69.40903 20.97866 19806 ft 367 kts 44°
2026-04-28 00:05 69.42574 21.03295 19263 ft 362 kts 44°
2026-04-28 00:05 69.44208 21.08609 18750 ft 358 kts 45°
2026-04-28 00:05 69.45817 21.13851 18181 ft 353 kts 45°
2026-04-28 00:06 69.47418 21.19078 17653 ft 348 kts 45°
2026-04-28 00:06 69.48995 21.24238 17150 ft 343 kts 45°
2026-04-28 00:06 69.50520 21.29241 16646 ft 338 kts 45°
2026-04-28 00:06 69.52078 21.34364 16150 ft 334 kts 46°
2026-04-28 00:07 69.53594 21.39359 15652 ft 331 kts 46°
2026-04-28 00:07 69.55088 21.44293 15164 ft 327 kts 46°
2026-04-28 00:07 69.56573 21.49208 14687 ft 324 kts 46°
2026-04-28 00:07 69.58036 21.54071 14206 ft 322 kts 46°
2026-04-28 00:08 69.59491 21.58912 13694 ft 318 kts 46°
2026-04-28 00:08 69.60924 21.63694 13233 ft 314 kts 46°
2026-04-28 00:08 69.62336 21.68414 12770 ft 310 kts 46°
2026-04-28 00:08 69.63731 21.73092 12323 ft 306 kts 46°
2026-04-28 00:09 69.65096 21.77672 11876 ft 303 kts 46°
2026-04-28 00:09 69.66468 21.82291 11418 ft 301 kts 46°
2026-04-28 00:09 69.67816 21.86837 10980 ft 298 kts 46°
2026-04-28 00:09 69.69153 21.91364 10648 ft 293 kts 46°
2026-04-28 00:10 69.70441 21.95743 10489 ft 281 kts 46°
2026-04-28 00:10 69.71694 22.00008 10136 ft 277 kts 45°
2026-04-28 00:10 69.72923 22.04191 9945 ft 269 kts 45°
2026-04-28 00:10 69.74144 22.08342 9807 ft 273 kts 45°
2026-04-28 00:11 69.75353 22.12456 9663 ft 271 kts 45°
2026-04-28 00:11 69.76571 22.16613 9394 ft 271 kts 45°
2026-04-28 00:11 69.77756 22.20822 9040 ft 270 kts 51°
2026-04-28 00:11 69.78673 22.25577 8686 ft 272 kts 63°
2026-04-28 00:12 69.79269 22.30765 8325 ft 271 kts 68°
2026-04-28 00:12 69.79831 22.35934 7979 ft 267 kts 68°
2026-04-28 00:12 69.80395 22.41026 7634 ft 264 kts 66°
2026-04-28 00:12 69.80953 22.46059 7287 ft 262 kts 66°
2026-04-28 00:13 69.81506 22.51059 6933 ft 259 kts 66°
2026-04-28 00:13 69.82054 22.56017 6349 ft 264 kts 66°
2026-04-28 00:13 69.82614 22.61094 5924 ft 261 kts 67°
2026-04-28 00:13 69.83154 22.66063 5594 ft 257 kts 67°
2026-04-28 00:14 69.83685 22.70974 5247 ft 253 kts 68°
2026-04-28 00:14 69.84207 22.75820 4908 ft 252 kts 68°
2026-04-28 00:14 69.84731 22.80642 4575 ft 250 kts 68°
2026-04-28 00:14 69.85251 22.85427 4242 ft 247 kts 68°
2026-04-28 00:15 69.85751 22.90079 3920 ft 241 kts 69°
2026-04-28 00:15 69.86245 22.94683 3603 ft 238 kts 69°
2026-04-28 00:15 69.86775 22.99560 3259 ft 273 kts 69°
2026-04-28 00:15 69.87354 23.04965 3098 ft 280 kts 70°
2026-04-28 00:16 69.87912 23.10249 2982 ft 267 kts 70°
2026-04-28 00:16 69.88446 23.15326 2525 ft 260 kts 71°
2026-04-28 00:16 69.88962 23.20233 1777 ft 248 kts 71°
2026-04-28 00:16 69.89447 23.24836 1453 ft 221 kts 68°
2026-04-28 00:17 69.89932 23.29148 1739 ft 234 kts 69°
2026-04-28 00:17 69.90422 23.33758 1813 ft 236 kts 71°
2026-04-28 00:17 69.90817 23.38179 1824 ft 220 kts 75°
2026-04-28 00:17 69.91099 23.42248 1751 ft 195 kts 77°
2026-04-28 00:18 69.91292 23.45667 1589 ft 171 kts 78°
2026-04-28 00:18 69.91533 23.48662 1583 ft 133 kts 54°
2026-04-28 00:18 69.92201 23.49638 1493 ft 106 kts 349°
2026-04-28 00:18 69.93025 23.49335 1515 ft 143 kts 347°
2026-04-28 00:19 69.93848 23.48370 1441 ft 117 kts 339°
2026-04-28 00:19 69.94594 23.47806 1319 ft 117 kts 346°
2026-04-28 00:19 69.95416 23.47217 1030 ft 123 kts 334°
2026-04-28 00:19 69.96015 23.45706 780 ft 116 kts 290°
2026-04-28 00:20 69.96308 23.43472 606 ft 118 kts 296°
2026-04-28 00:20 69.96713 23.41448 323 ft 115 kts 302°
2026-04-28 00:20 69.97116 23.39517 112 ft 107 kts 302°
2026-04-28 00:20 69.97477 23.37795 27 ft 94 kts 302°
2026-04-28 00:21 69.97762 23.36443 20 ft 58 kts 302°
2026-04-28 00:21 69.97887 23.35843 19 ft 24 kts 301°
2026-04-28 00:21 69.97939 23.35520 21 ft 16 kts 271°
2026-04-28 00:21 69.97932 23.35422 20 ft 10 kts 245°
2026-04-28 00:22 69.97879 23.35223 20 ft 14 kts 245°
2026-04-28 00:22 69.97836 23.34986 20 ft 2 kts 209°
2026-04-28 00:22 69.97829 23.34972 20 ft 4 kts 212°
2026-04-28 00:22 69.97804 23.34928 20 ft 0 kts 211°